{"data":{"norad_id":61910,"intl_designator":"2024-206A","name":"KOREASAT 6A","alt_names":[],"object_type":"PAYLOAD","status":"ACTIVE","operator":null,"country":"SKOR","launch_date":"2024-11-11","launch_site_code":"AFETR","launch_vehicle":null,"mission":null,"orbit_class":"UNKNOWN","rcs_meters":null,"size_class":null,"mass_kg":null,"dimensions":null,"purposes":["comms"],"wikipedia_slug":null,"has_3d_model":false,"image_url":null,"decayed_at":null,"tle_current":{"epoch":"2026-05-24T23:09:38.592000Z","epoch_age_seconds":75156,"freshness":"FRESH","line1":"1 61910U 24206A   26144.96503000 -.00000365  00000+0  00000+0 0  9994","line2":"2 61910   0.0440 109.3146 0000929 301.4185 295.2526  1.00272528  5602","mean_motion":1.00272528,"eccentricity":9.29e-5,"inclination_deg":0.044,"raan_deg":109.3146,"arg_perigee_deg":301.4185,"mean_anomaly_deg":295.2526,"bstar":0,"rev_number":560,"period_min":1436.0862628296,"perigee_km":35782.469588356,"apogee_km":35790.303756854,"semimajor_km":42164.523672605,"source":"CELESTRAK","updated_at":"2026-05-25T13:38:14.148328Z"}}}